ONEWEB-0393, 50473

Orbit data source: Space-Track

ONEWEB-0393, 50473 is a payload satellite owned by One Web (NAA) (UK) in LEO that was launched on Mon, 27 Dec 2021 UTC via a SOYUZ-2-1B launch vehicle from the Tyuratam Missile And Space Complex (TTMTR). Payload-class satellites include a variety of spacecraft equipped with specific instruments for various scientific and technological missions. These include communications satellites like Starlink; space stations such as the ISS; scientific satellites like the Hubble; Earth observation satellites from companies like Planet Labs, Umbra, and HawkEye 360; GPS; miniature CubeSats for education and research; and military/defense satellites.

Loading next visibility...
Identifier
50473, 2021-132E
Orbit
LEO
Country
Flag of UKUK
Related business
Manufacturer
One Web
Mission
Operational Commercial Communications
Bus & Motor
ARROW, Unknown motor
Mass
148 kg wet, ~140 kg dry
Launch date (UTC)
2021-12-27 (4 years ago)
Launch vehicle
SOYUZ-2-1B
Launch site
Tyuratam Missile And Space Complex (TTMTR)
Object type
Payload
Rocket body
Debris
Shape & HBR
Trap Box + 2 Pan, 6.7 m
Radar Cross Section
3.464 m², Large (>1 m²)

Expand to show TLE details & history
Last TLE update: 2 days ago

TLE from 2 days ago
0 ONEWEB-0393
1 50473U 21132E   26170.94169769 -.00000003  00000-0 -41998-4 0  9995
2 50473  87.9134   5.3158 0001994  84.5803 275.5556 13.17650394218472
Epoch: 2026-06-19T22:36Z
TLE epoch observation values (Epoch: 2026-06-19T22:36:02.680Z)
Latitude
-0.00002°
Longitude
118.14119°
Altitude
1,196.46 km
Speed
7.256 km/s
True Right ascension
00h 21m 15s
True Declination
0° 00' 00"
Sunlit
Object was in daylight at epoch
Visualization orbit readout
Latitude
Unknown
Longitude
Unknown
Altitude
Unknown
Speed
Unknown
Apparent Right ascension
Unknown
Apparent Declination
Unknown
Sunlit
N/A
Visualization observer readout
Local Sidereal Time
21:34:26
Azimuth
Unknown
Elevation
Unknown
Doppler factor
Unknown
Orbital elements
Apogee altitude
1,192.326 km
Perigee altitude
1,189.307 km
Semi-major axis
7,568.954 km
Eccentricity
0.0002
Inclination
87.9134°
RAAN
5.3158°
Arg. of periapsis
84.5803°
True anomaly
275.53286°
Mean anomaly
275.5556°
Eccentric anomaly
275.54423°
Mean motion
3.29602 °/min
Orbital period
109.22 mins
BSTAR
-0.000041998
Loading maneuver chart data...
Computing Atmospheric mass density...
Loading historical data...
Loading historical data...
Loading historical data...
Loading historical data...
Loading historical data...
Loading historical data...
Loading historical data...

Documentation

Showing up to 5 results
|